This demonstration page uses our WeatherBlox Daily Observations layout. Learn more.

Left ArrowRight Arrow

34.74481, -87.66753

Hourly Observations for May 22, 2022

Temp ( °F °C ) Dew Point ( °F °C ) Humidity (%) Winds ( mph kmh ) Pressure ( in mb ) Visibility ( mi km ) Precip ( " mm )
12:02 am 00:02 Cloudy with Nearby Thunderstorms 69 20.6 64 17.8 84 84 NNW 9 15 30.17 1022 5 8 0.07 1.78
12:08 am 00:08 Cloudy with Nearby Thunderstorms 67 19.4 65 18.3 93 93 NW 9 15 30.18 1022 2 3 0.19 4.83
12:13 am 00:13 Cloudy with Heavy Rain 67 19.4 65 18.3 93 93 NNW 7 11 30.18 1022 2 3 0.23 5.84
12:17 am 00:17 Cloudy with Nearby Thunderstorms 67 19.4 65 18.3 93 93 NNW 6 9 30.17 1022 3 5 0.25 6.35
12:36 am 00:36 Cloudy with Light Rain 68 20 65 18.3 90 90 Calm 30.18 1022 10 16 0.29 7.37
12:53 am 00:53 Cloudy with Light Rain 68 20 65 18.3 90 90 NNW 6 9 30.14 1021 10 16 0.29 7.37
1:53 am 01:53 Cloudy 68 20 66 18.9 93 93 Calm 30.11 1020 10 16 0.00 0.00
2:53 am 02:53 Partly Cloudy 67 19.4 66 18.9 97 97 SSE 7 11 30.11 1020 10 16 0.00 0.00
3:53 am 03:53 Mostly Cloudy 68 20 66 18.9 93 93 S 5 7 30.10 1019 10 16 0.00 0.00
4:53 am 04:53 Mostly Clear 68 20 65 18.3 90 90 Calm 30.10 1019 10 16 0.00 0.00
5:53 am 05:53 Mostly Cloudy 67 19.4 65 18.3 93 93 Calm 30.12 1020 10 16 0.00 0.00
6:53 am 06:53 Mostly Sunny 68 20 66 18.9 93 93 S 3 6 30.14 1021 10 16 0.00 0.00
7:43 am 07:43 Mostly Sunny 70 21.1 67 19.4 90 90 SE 3 6 30.16 1021 10 16 0.00 0.00
7:53 am 07:53 Partly Cloudy 70 21.1 67 19.4 90 90 SE 3 6 30.15 1021 10 16 0.00 0.00
8:45 am 08:45 Mostly Cloudy 72 22.2 67 19.4 84 84 Calm 30.16 1021 10 16 0.00 0.00
8:53 am 08:53 Mostly Sunny 73 22.8 66 18.9 79 79 Calm 30.16 1022 10 16 0.00 0.00
9:53 am 09:53 Sunny 76 24.4 67 19.4 74 74 Calm 30.14 1021 10 16 0.00 0.00
10:53 am 10:53 Sunny 79 26.1 69 20.6 72 72 VRB 3 6 30.15 1021 10 16 0.00 0.00
11:53 am 11:53 Partly Cloudy 81 27.2 68 20 65 65 NE 5 7 30.15 1021 10 16 0.00 0.00
12:53 pm 12:53 Mostly Cloudy 82 27.8 68 20 63 63 N 7 11 30.14 1021 10 16 0.00 0.00
1:53 pm 13:53 Partly Cloudy 84 28.9 68 20 59 59 NNE 5 7 30.10 1019 10 16 0.00 0.00
2:53 pm 14:53 Mostly Cloudy with Nearby Thunderstorms 81 27.2 68 20 65 65 NNE 8 13 30.09 1019 10 16 0.00 0.00
3:53 pm 15:53 Cloudy with Nearby Thunderstorms 75 23.9 68 20 79 79 N 5 7 30.10 1019 5 8 0.03 0.76
4:14 pm 16:14 Cloudy with Rain 74 23.3 69 20.6 85 85 Calm 30.09 1019 5 8 0.05 1.27
4:53 pm 16:53 Cloudy with Light Rain 74 23.3 70 21.1 88 88 N 3 6 30.10 1019 8 13 0.14 3.56
5:53 pm 17:53 Cloudy with Rain 72 22.2 69 20.6 91 91 N 5 7 30.09 1019 5 8 0.09 2.29
6:53 pm 18:53 Mostly Cloudy 72 22.2 69 20.6 91 91 VRB 5 7 30.11 1020 10 16 0.01 0.25
7:53 pm 19:53 Mostly Cloudy with Light Rain 71 21.7 69 20.6 94 94 N 5 7 30.12 1020 8 13 0.07 1.78
8:53 pm 20:53 Mostly Cloudy 71 21.7 68 20 90 90 Calm 30.14 1021 10 16 0.01 0.25
9:46 pm 21:46 Mostly Cloudy 70 21.1 67 19.4 90 90 VRB 7 11 30.13 1020 10 16 0.01 0.25
9:53 pm 21:53 Mostly Cloudy 70 21.1 67 19.4 90 90 N 7 11 30.12 1020 10 16 0.01 0.25
10:12 pm 22:12 Mostly Cloudy 70 21.1 67 19.4 90 90 NNE 8 13 30.13 1020 10 16 0.00 0.00
10:35 pm 22:35 Mostly Cloudy 69 20.6 66 18.9 90 90 N 7 11 30.14 1021 10 16 0.00 0.00
10:53 pm 22:53 Cloudy 69 20.6 66 18.9 90 90 NNE 12 19 30.13 1020 9 14 0.00 0.00
11:53 pm 23:53 Cloudy 68 20 65 18.3 90 90 NE 10 17 30.12 1020 7 11 0.00 0.00

Powered by AerisWeather